Weather in Rozhdestveno

Russia / Republic of Mordovia     54°41′00″N   45°18′02″E
temp.,
°C
wind,
m/s
gust,
m/s
humid.,
%
clouds,
%
prec.,
mm/h
press.,
hPa
HPBL,
m
19 january, tue
tue1900:00−20ene1295100 0.0 1019134
03:00−20ne1196100 0.0 101936
06:00−20ne1296100 0.0 101866
09:00−20ne1198100 0.2 101868
12:00−17wsw1193100 0.4 1018250
15:00−17wnw1295100 0.5 1016216
18:00−19wnw0198100 0.1 101720
21:00−19wnw1298100 0.3 101726
20 january, wed
wed2000:00−19w1298100 0.2 101739
03:00−19wsw229898 0.3 101747
06:00−19w239887 0.1 101768
09:00−18w259790 0.3 1018154
12:00−15w359396 0.1 1018328
15:00−14w359498 0.1 1018328
18:00−15w369691 0.1 1020208
21:00−16w359789 0.1 1021121
21 january, thu
thu2100:00−17wsw359787 0.1 1021120
03:00−17w379793 0.1 1022176
06:00−18w4897100 0.1 1023193
09:00−19wsw399799 0.1 1023196
12:00−15wsw4993100 0.0 1023276
15:00−14sw51189100 0.0 1020346
18:00−13sw61486100 0.0 1018450
21:00−11sw81793100 0.6 1015664
22 january, fri
fri2200:00−10wsw71593100 1.0 1012707
03:00−8wsw71591100 1.8 1011651
06:00−4wsw71594100 0.4 1010717
09:000w71595100 1.3 1010729
12:000w61396100 0.3 1011679
15:00+1w61299100 0.4 1011554
18:00+1wsw51198100 0.1 1012422
21:00+1wsw61294100 0.1 1013547
23 january, sat
sat2300:00+1sw51193100 0.0 1014599
03:00+1sw51194100 0.0 1014595
06:00+1sw51298100 0.1 1014512
09:00+1sw61298100 0.1 1014518
12:00+1sw51296100 0.0 1015639
15:00+1sw51296100 0.0 1015578
18:00+1sw41196100 0.0 1016484
21:00+1ssw51197100 0.0 1016411